QPF
0.00 0.00 0.00 0.00 0.00 0.00 0.00 0.00 0.00 0.00 0.00 0.00 0.00 0.00 0.00 0.00 0.00 0.00 0.00 0.00 0.00 0.00 0.00 0.00 0.00 0.00 0.00 0.00 0.00 0.00 0.00 0.00 0.00 0.00 0.00 0.00 0.00 0.00
0.00 0.00 0.00 0.00 0.00 0.00 0.00 0.00 0.00 0.00 0.00 0.00 0.00 0.00 0.00 0.00 0.00 0.00 0.00 0.00 0.00 0.00 0.00 0.00 0.00 0.00 0.00 0.00 0.00 0.00 0.00 0.00 0.00 0.00 0.00 0.00 0.00 0.00
0.00 0.00 0.00 0.00 0.00 0.00 0.00 0.00 0.00 0.00 0.00 0.00 0.00 0.00 0.00 0.00 0.00 0.00 0.00 0.00 0.00 0.00 0.00 0.00 0.00 0.00 0.00 0.00 0.00 0.00 0.00 0.00 0.00 0.00 0.00 0.00 0.00 0.00
0.00 0.00 0.00 0.00 0.00 0.00 0.00 0.00 0.00 0.00 0.00 0.00 0.00 0.00 0.00 0.00 0.00 0.00 0.00 0.00 0.00 0.00 0.00 0.00 0.00 0.00 0.00 0.00 0.00 0.00 0.00 0.00 0.00 0.00 0.00 0.00 0.00 0.00
0.00 0.00 0.00 0.00 0.00 0.00 0.00 0.00 0.00 0.00 0.00 0.00 0.00 0.00 0.00 0.00 0.00 0.00 0.00 0.00 0.00 0.00 0.00 0.00 0.00 0.00 0.00 0.00 0.00 0.00 0.00 0.00 0.00 0.00 0.00 0.00 0.00 0.00
0.00 0.00 0.00 0.00 0.00 0.00 0.00 0.00 0.00 0.00 0.00 0.00 0.00 0.00 0.00 0.00 0.00 0.00 0.00 0.00 0.00 0.00 0.00 0.00 0.00 0.00 0.00 0.00 0.00 0.00 0.00 0.00 0.00 0.00 0.00 0.00 0.00 0.00
0.00 0.00 0.00 0.00 0.00 0.00 0.00 0.00 0.00 0.00 0.00 0.00 0.00 0.00 0.00 0.00 0.00 0.00 0.00 0.00 0.00 0.00 0.00 0.00 0.00 0.00 0.00 0.00 0.00 0.00 0.00 0.00 0.00 0.00 0.00 0.00 0.00 0.00
0.00 0.00 0.00 0.00 0.00 0.00 0.00 0.00 0.00 0.00 0.00 0.00 0.00 0.00 0.00 0.00 0.00 0.00 0.00 0.00 0.00 0.00 0.00 0.00 0.00 0.00 0.00 0.00 0.00 0.00 0.00 0.00 0.00 0.00 0.00 0.00 0.00 0.00
0.00 0.00 0.00 0.00 0.00 0.00 0.00 0.00 0.00 0.00 0.00 0.00 0.00 0.00 0.00 0.00 0.00 0.00 0.00 0.00 0.00 0.00 0.00 0.00 0.00 0.00 0.00 0.00 0.00 0.00 0.00 0.00 0.00 0.00 0.00 0.00 0.00 0.00
0.00 0.00 0.00 0.00 0.00 0.00 0.00 0.00 0.00 0.00 0.00 0.00 0.00 0.00 0.00 0.00 0.00 0.00 0.00 0.00 0.00 0.00 0.00 0.00 0.00 0.00 0.00 0.00 0.00 0.00 0.00 0.00 0.00 0.00 0.00 0.00 0.00 0.00
0.00 0.00 0.00 0.00 0.00 0.00 0.00 0.00 0.00 0.00 0.00 0.00 0.00 0.00 0.00 0.00 0.00 0.00 0.00 0.00 0.00 0.00 0.00 0.00 0.00 0.00 0.00 0.00 0.00 0.00 0.00 0.00 0.00 0.00 0.00 0.00 0.00 0.00
0.00 0.00 0.00 0.00 0.00 0.00 0.00 0.00 0.00 0.00 0.00 0.00 0.00 0.00 0.00 0.00 0.00 0.00 0.00 0.00 0.00 0.00 0.00 0.00 0.00 0.00 0.00 0.00 0.00 0.00 0.00 0.00 0.00 0.00 0.00 0.00 0.00 0.00
0.00 0.00 0.00 0.00 0.00 0.00 0.00 0.00 0.00 0.00 0.00 0.00 0.00 0.00 0.00 0.00 0.00 0.00 0.00 0.00 0.00 0.00 0.00 0.00 0.00 0.00 0.00 0.00 0.00 0.00 0.00 0.00 0.00 0.00 0.00 0.00 0.00 0.00
0.00 0.00 0.00 0.00 0.00 0.00 0.00 0.00 0.00 0.00 0.00 0.00 0.00 0.00 0.00 0.00 0.00 0.00 0.00 0.00 0.00 0.00 0.00 0.00 0.00 0.00 0.00 0.00 0.00 0.00 0.00 0.00 0.00 0.00 0.00 0.00 0.00 0.01
0.00 0.00 0.00 0.00 0.00 0.00 0.00 0.00 0.00 0.00 0.00 0.00 0.00 0.00 0.00 0.00 0.00 0.00 0.00 0.00 0.00 0.00 0.00 0.00 0.00 0.00 0.00 0.00 0.00 0.00 0.00 0.00 0.00 0.00 0.00 0.00 0.00 0.00
0.00 0.00 0.00 0.00 0.00 0.00 0.00 0.00 0.00 0.00 0.00 0.00 0.00 0.00 0.00 0.00 0.00 0.00 0.00 0.00 0.00 0.00 0.00 0.00 0.00 0.00 0.00 0.00 0.00 0.00 0.00 0.00 0.00 0.00 0.00 0.00 0.00 0.00
0.00 0.00 0.00 0.00 0.00 0.00 0.00 0.00 0.00 0.00 0.00 0.00 0.00 0.00 0.00 0.00 0.00 0.00 0.00 0.00 0.00 0.00 0.00 0.00 0.00 0.00 0.00 0.00 0.00 0.00 0.00 0.00 0.00 0.00 0.00 0.00 0.00 0.00
0.00 0.00 0.00 0.00 0.00 0.00 0.00 0.00 0.00 0.00 0.00 0.00 0.00 0.00 0.00 0.00 0.00 0.00 0.00 0.00 0.00 0.00 0.00 0.00 0.00 0.00 0.00 0.00 0.00 0.00 0.00 0.00 0.00 0.00 0.00 0.00 0.00 0.00
0.00 0.00 0.00 0.00 0.00 0.00 0.00 0.00 0.00 0.00 0.00 0.00 0.00 0.00 0.00 0.00 0.00 0.00 0.00 0.00 0.00 0.00 0.00 0.00 0.00 0.01 0.00 0.00 0.00 0.00 0.00 0.00 0.00 0.00 0.00 0.00 0.00 0.00
0.00 0.00 0.00 0.00 0.00 0.00 0.00 0.00 0.00 0.00 0.00 0.00 0.00 0.00 0.00 0.00 0.00 0.00 0.00 0.00 0.00 0.00 0.00 0.00 0.00 0.01 0.01 0.00 0.00 0.00 0.00 0.00 0.00 0.00 0.00 0.00 0.00 0.00
0.00 0.00 0.00 0.00 0.00 0.00 0.00 0.00 0.00 0.00 0.00 0.00 0.00 0.00 0.00 0.00 0.00 0.00 0.00 0.00 0.00 0.00 0.00 0.00 0.00 0.00 0.01 0.01 0.00 0.00 0.00 0.00 0.00 0.00 0.00 0.00 0.00 0.00
0.00 0.00 0.00 0.00 0.00 0.00 0.00 0.00 0.00 0.00 0.00 0.00 0.00 0.00 0.00 0.00 0.00 0.00 0.00 0.00 0.00 0.00 0.00 0.00 0.00 0.00 0.00 0.00 0.00 0.00 0.00 0.00 0.00 0.00 0.00 0.00 0.00 0.00
0.00 0.00 0.00 0.00 0.00 0.00 0.00 0.00 0.00 0.00 0.00 0.00 0.00 0.00 0.00 0.00 0.00 0.00 0.00 0.00 0.00 0.00 0.00 0.00 0.00 0.00 0.00 0.00 0.00 0.00 0.00 0.00 0.00 0.00 0.00 0.00 0.00 0.00
MSLP
1022.15 1022.36 1022.53 1022.55 1022.61 1022.70 1023.06 1023.08 1023.42 1023.58 1023.52 1022.82 1022.84 1022.27 1022.17 1021.90 1021.66 1021.51 1021.41 1021.20 1020.79 1020.43 1020.22 1020.21 1020.02 1019.74 1019.40 1019.16 1018.97 1018.82 1018.66 1018.42 1018.09 1017.72 1017.27 1016.68 1016.05 1015.17
1022.07 1022.36 1022.56 1022.49 1022.58 1022.74 1022.94 1023.07 1023.19 1023.51 1023.63 1023.21 1023.03 1022.76 1022.58 1022.22 1021.77 1021.58 1021.33 1021.02 1020.76 1020.44 1020.25 1020.26 1020.01 1019.70 1019.42 1019.14 1018.88 1018.63 1018.51 1018.41 1018.17 1017.81 1017.40 1016.92 1016.34 1015.61
1022.10 1022.34 1022.32 1022.50 1022.56 1022.71 1022.67 1022.84 1023.06 1023.27 1023.40 1023.21 1023.02 1022.89 1022.92 1022.68 1022.18 1021.75 1021.34 1021.08 1020.82 1020.50 1020.33 1020.06 1019.85 1019.68 1019.36 1019.09 1018.80 1018.63 1018.39 1018.21 1018.13 1017.95 1017.61 1017.16 1016.62 1016.05
1022.26 1022.42 1022.60 1022.60 1022.69 1022.88 1022.92 1022.99 1023.04 1023.17 1023.46 1023.46 1023.37 1023.12 1023.07 1023.02 1022.88 1022.34 1021.92 1021.33 1021.12 1020.86 1020.48 1020.13 1019.94 1019.74 1019.45 1019.14 1018.87 1018.56 1018.36 1018.17 1017.99 1017.84 1017.65 1017.36 1016.92 1016.38
1022.47 1022.67 1022.84 1022.94 1023.10 1023.07 1023.09 1023.17 1023.19 1023.26 1023.47 1023.70 1023.76 1023.55 1023.46 1023.31 1023.08 1022.95 1022.57 1022.12 1021.56 1021.08 1020.85 1020.56 1020.36 1020.04 1019.56 1019.07 1018.70 1018.49 1018.24 1018.11 1017.93 1017.67 1017.50 1017.32 1017.03 1016.66
1022.72 1022.96 1023.17 1023.26 1023.32 1023.33 1023.35 1023.43 1023.40 1023.55 1023.65 1023.83 1024.04 1024.01 1023.87 1023.46 1023.27 1023.25 1022.74 1022.49 1022.01 1021.28 1020.90 1020.86 1020.71 1020.27 1019.80 1019.12 1018.54 1018.27 1018.17 1017.95 1017.76 1017.53 1017.28 1017.11 1016.95 1016.68
1022.85 1023.13 1023.39 1023.50 1023.48 1023.47 1023.58 1023.73 1023.74 1023.88 1023.94 1023.99 1024.13 1024.08 1023.80 1023.68 1023.59 1023.47 1023.34 1022.79 1022.17 1021.69 1021.42 1020.89 1020.49 1020.44 1020.00 1019.32 1018.94 1018.32 1018.01 1017.78 1017.46 1017.23 1017.00 1016.83 1016.73 1016.53
1022.76 1023.02 1023.18 1023.26 1023.41 1023.45 1023.52 1023.58 1023.68 1023.86 1024.03 1024.27 1024.45 1024.51 1024.29 1024.13 1024.11 1023.95 1023.53 1023.28 1022.72 1021.86 1021.85 1020.98 1020.85 1020.44 1019.74 1019.53 1019.00 1018.52 1018.03 1017.71 1017.34 1017.05 1016.77 1016.50 1016.61 1016.40
1022.66 1022.87 1022.99 1023.08 1023.40 1023.56 1023.50 1023.40 1023.41 1023.44 1023.56 1023.78 1024.15 1024.35 1024.33 1024.24 1024.11 1024.02 1023.79 1023.71 1023.40 1022.37 1021.94 1021.15 1020.81 1020.47 1019.80 1018.98 1018.74 1018.46 1018.22 1017.83 1017.48 1017.04 1016.72 1016.37 1016.32 1016.27
1022.58 1022.85 1023.04 1023.23 1023.49 1023.57 1023.59 1023.61 1023.63 1023.57 1023.60 1023.73 1023.96 1023.94 1023.95 1023.79 1023.78 1023.64 1023.63 1023.33 1022.87 1022.26 1022.10 1021.85 1020.62 1020.09 1019.50 1019.03 1018.33 1018.16 1018.03 1017.83 1017.51 1017.06 1016.61 1016.26 1016.04 1016.03
1022.68 1022.86 1023.01 1023.14 1023.30 1023.46 1023.64 1023.69 1023.62 1023.62 1023.52 1023.58 1023.51 1023.29 1023.21 1023.20 1023.22 1023.55 1023.54 1023.49 1023.06 1022.49 1021.83 1021.65 1021.14 1020.52 1019.77 1018.73 1018.07 1017.73 1017.94 1017.70 1017.27 1016.90 1016.55 1016.13 1015.84 1015.66
1022.40 1022.58 1022.73 1022.95 1023.12 1023.35 1023.54 1023.69 1023.76 1023.81 1023.82 1023.73 1023.80 1023.57 1023.27 1023.16 1022.89 1023.12 1023.27 1023.43 1023.44 1022.98 1022.06 1022.04 1021.65 1021.25 1020.26 1019.02 1018.51 1018.05 1017.79 1017.48 1017.20 1016.71 1016.19 1015.84 1015.52 1015.57
1022.16 1022.33 1022.47 1022.66 1022.96 1023.12 1023.24 1023.48 1023.63 1023.48 1023.61 1023.78 1023.63 1023.56 1023.50 1023.29 1023.20 1023.04 1022.96 1022.91 1023.04 1022.78 1021.92 1021.96 1021.74 1021.31 1021.05 1019.77 1018.79 1018.49 1018.21 1017.56 1017.18 1016.65 1016.11 1015.48 1015.11 1014.97
1021.78 1021.87 1022.06 1022.22 1022.54 1022.78 1022.85 1022.99 1023.03 1023.14 1023.49 1023.56 1023.55 1023.55 1023.50 1023.30 1023.02 1022.58 1022.65 1022.64 1022.34 1022.15 1021.66 1021.59 1021.44 1021.17 1020.68 1019.84 1019.15 1018.25 1017.86 1017.61 1017.02 1016.27 1015.88 1015.38 1014.88 1014.45
1021.40 1021.56 1021.59 1021.92 1022.26 1022.43 1022.42 1022.34 1022.50 1022.88 1023.21 1023.60 1023.59 1023.48 1023.24 1023.02 1022.73 1022.61 1022.19 1022.09 1021.58 1021.20 1020.71 1020.91 1020.78 1020.47 1020.40 1019.78 1019.11 1018.55 1017.78 1016.83 1016.57 1015.93 1015.42 1015.10 1014.84 1014.40
1021.10 1021.31 1021.46 1021.67 1021.90 1022.12 1022.11 1022.11 1022.38 1022.64 1022.92 1023.12 1023.15 1023.01 1022.88 1022.80 1022.57 1022.36 1022.18 1021.92 1021.51 1020.72 1020.23 1020.05 1019.80 1019.69 1019.45 1019.08 1018.71 1018.01 1017.70 1017.27 1015.96 1015.76 1015.25 1014.56 1014.14 1013.94
1020.83 1021.17 1021.46 1021.66 1021.83 1021.86 1021.96 1021.98 1022.09 1022.28 1022.54 1022.58 1022.67 1022.78 1022.71 1022.69 1022.47 1022.08 1021.98 1021.70 1021.22 1020.54 1019.84 1019.46 1019.10 1018.67 1018.44 1018.31 1017.91 1017.43 1016.86 1016.41 1015.77 1015.12 1014.78 1014.08 1013.56 1013.22
1020.44 1020.74 1021.09 1021.34 1021.50 1021.49 1021.50 1021.67 1021.67 1021.79 1021.94 1022.03 1022.19 1022.18 1022.43 1022.47 1021.97 1021.71 1021.67 1021.64 1021.08 1020.35 1019.61 1019.12 1018.80 1018.39 1017.82 1017.06 1017.10 1016.47 1016.08 1015.59 1015.02 1014.71 1014.22 1013.64 1013.00 1012.55
1020.02 1020.25 1020.42 1020.69 1020.82 1020.88 1021.06 1021.19 1021.21 1021.19 1021.32 1021.50 1021.62 1021.94 1021.84 1021.77 1021.28 1021.03 1021.01 1020.94 1020.45 1019.95 1019.19 1018.73 1018.57 1018.30 1017.46 1016.34 1015.43 1015.30 1015.14 1014.78 1014.45 1013.87 1013.52 1013.05 1012.32 1011.96
1019.45 1019.67 1019.82 1020.08 1020.18 1020.22 1020.41 1020.65 1020.63 1020.78 1020.94 1021.10 1021.30 1021.19 1020.88 1020.80 1020.75 1020.47 1020.28 1020.17 1019.80 1019.11 1018.42 1017.98 1017.74 1017.43 1017.04 1016.27 1015.43 1014.25 1014.17 1014.08 1013.87 1013.31 1012.79 1012.42 1011.89 1011.46
1018.93 1018.99 1019.07 1019.25 1019.33 1019.56 1019.75 1019.89 1020.15 1020.20 1020.07 1020.38 1020.37 1020.24 1020.01 1019.99 1019.95 1019.81 1019.53 1019.24 1018.92 1018.40 1017.76 1017.17 1016.80 1016.29 1015.98 1015.74 1015.09 1013.75 1013.02 1012.90 1012.71 1012.39 1011.83 1011.62 1011.11 1010.86
1018.34 1018.40 1018.44 1018.63 1018.71 1018.85 1019.08 1019.24 1019.39 1019.85 1019.73 1019.52 1019.36 1019.35 1019.35 1019.26 1019.22 1019.03 1018.74 1018.53 1018.12 1017.64 1016.88 1016.46 1016.05 1015.85 1015.65 1015.32 1014.24 1013.29 1012.39 1011.91 1011.52 1011.08 1010.73 1010.71 1010.52 1010.03
1017.65 1017.87 1017.93 1018.04 1018.18 1018.30 1018.43 1018.74 1018.79 1019.04 1018.92 1018.83 1018.82 1018.80 1018.91 1018.79 1018.46 1018.09 1017.95 1017.62 1017.25 1016.82 1016.37 1015.83 1015.44 1015.08 1014.67 1014.22 1013.40 1012.50 1011.78 1011.33 1010.96 1010.42 1009.71 1009.26 1009.25 1009.45
Thickness
5579 5575 5570 5567 5564 5561 5556 5554 5549 5546 5540 5545 5542 5545 5543 5543 5543 5542 5541 5540 5541 5542 5543 5543 5543 5544 5546 5548 5548 5549 5550 5550 5553 5555 5559 5564 5570 5576
5571 5566 5561 5559 5556 5552 5549 5546 5543 5538 5532 5534 5535 5535 5534 5533 5534 5534 5533 5533 5533 5534 5535 5535 5536 5537 5538 5540 5542 5544 5544 5545 5546 5548 5551 5555 5560 5566
5561 5557 5554 5550 5546 5543 5541 5539 5535 5531 5527 5527 5525 5523 5522 5522 5523 5525 5525 5525 5524 5525 5524 5525 5527 5529 5531 5532 5533 5534 5537 5538 5539 5540 5542 5545 5550 5554
5549 5545 5541 5540 5536 5532 5529 5527 5525 5522 5518 5516 5515 5512 5511 5510 5509 5511 5510 5513 5513 5512 5513 5514 5515 5516 5518 5522 5524 5524 5526 5528 5530 5531 5532 5534 5538 5543
5536 5532 5529 5526 5522 5520 5518 5516 5513 5511 5506 5503 5500 5499 5497 5496 5496 5495 5496 5498 5499 5501 5500 5501 5502 5503 5506 5509 5512 5514 5516 5516 5518 5520 5522 5524 5526 5530
5524 5519 5514 5511 5508 5506 5505 5501 5499 5496 5494 5489 5485 5484 5484 5485 5484 5481 5483 5483 5485 5488 5490 5487 5487 5489 5493 5497 5501 5503 5504 5505 5507 5509 5512 5513 5515 5517
5510 5505 5501 5497 5495 5492 5489 5485 5482 5479 5476 5475 5472 5471 5472 5471 5469 5469 5466 5468 5471 5474 5474 5475 5477 5476 5478 5482 5485 5489 5492 5494 5496 5498 5501 5503 5504 5506
5498 5493 5490 5486 5482 5479 5476 5472 5469 5464 5460 5456 5454 5452 5452 5452 5451 5450 5452 5450 5451 5457 5457 5461 5462 5463 5469 5467 5470 5473 5477 5480 5483 5486 5489 5492 5492 5495
5484 5480 5478 5475 5470 5465 5461 5459 5456 5453 5449 5446 5441 5439 5436 5437 5436 5434 5434 5432 5430 5436 5441 5446 5447 5448 5452 5457 5457 5459 5461 5465 5468 5472 5475 5479 5481 5483
5470 5466 5462 5457 5453 5448 5445 5442 5439 5437 5435 5431 5427 5425 5424 5424 5423 5421 5420 5421 5421 5422 5421 5423 5430 5437 5437 5438 5443 5443 5446 5448 5451 5455 5460 5464 5468 5470
5452 5449 5446 5441 5437 5433 5428 5425 5423 5421 5418 5415 5412 5411 5409 5406 5405 5402 5400 5400 5403 5404 5405 5408 5409 5414 5418 5424 5429 5430 5425 5429 5435 5439 5444 5449 5453 5457
5438 5434 5429 5425 5422 5418 5413 5408 5405 5403 5401 5398 5395 5392 5391 5390 5388 5386 5384 5379 5376 5379 5381 5384 5384 5385 5397 5404 5407 5407 5411 5411 5415 5421 5428 5433 5438 5442
5423 5419 5415 5411 5407 5403 5398 5393 5389 5387 5385 5381 5379 5376 5374 5372 5369 5367 5365 5364 5359 5359 5361 5359 5364 5365 5366 5378 5384 5385 5387 5391 5396 5402 5408 5416 5422 5427
5410 5407 5402 5398 5393 5388 5385 5380 5376 5373 5368 5365 5363 5359 5356 5353 5352 5353 5348 5345 5345 5344 5344 5338 5341 5341 5346 5352 5356 5362 5365 5369 5375 5382 5387 5394 5402 5411
5398 5393 5389 5383 5378 5373 5370 5367 5362 5357 5352 5348 5345 5342 5339 5337 5335 5331 5331 5327 5331 5329 5326 5321 5319 5321 5320 5325 5330 5334 5338 5348 5352 5361 5366 5372 5379 5389
5383 5378 5373 5369 5364 5359 5355 5350 5345 5340 5336 5332 5330 5326 5323 5318 5314 5310 5308 5305 5305 5309 5303 5298 5297 5295 5300 5302 5304 5312 5310 5313 5328 5333 5340 5351 5359 5366
5367 5361 5356 5351 5346 5342 5338 5334 5330 5325 5320 5316 5311 5306 5302 5297 5294 5291 5285 5283 5283 5283 5285 5277 5268 5269 5271 5272 5277 5282 5286 5292 5297 5304 5313 5326 5338 5346
5355 5348 5342 5336 5333 5329 5326 5321 5317 5313 5307 5302 5294 5289 5282 5276 5275 5270 5260 5254 5253 5253 5252 5248 5241 5235 5235 5246 5241 5250 5255 5262 5272 5277 5284 5297 5312 5323
5342 5335 5331 5326 5323 5319 5313 5308 5305 5298 5293 5285 5279 5269 5263 5257 5254 5249 5239 5230 5227 5222 5222 5217 5208 5205 5211 5222 5230 5222 5228 5234 5239 5249 5258 5271 5288 5300
5327 5323 5319 5315 5311 5307 5302 5296 5291 5284 5277 5269 5260 5254 5249 5243 5235 5226 5217 5206 5202 5202 5203 5200 5192 5193 5194 5200 5208 5220 5213 5214 5217 5226 5236 5245 5261 5274
5312 5311 5308 5304 5301 5295 5289 5283 5277 5272 5265 5256 5250 5243 5235 5224 5216 5207 5200 5194 5190 5188 5189 5190 5185 5184 5186 5187 5193 5206 5212 5209 5210 5214 5222 5229 5243 5255
5300 5298 5295 5292 5288 5283 5277 5271 5264 5255 5249 5243 5237 5227 5216 5206 5198 5192 5187 5182 5181 5180 5181 5181 5181 5178 5175 5177 5187 5195 5203 5206 5206 5210 5216 5220 5229 5241
5290 5286 5282 5279 5274 5268 5263 5256 5250 5244 5236 5230 5222 5211 5199 5192 5186 5182 5178 5176 5175 5174 5174 5176 5177 5175 5177 5178 5183 5190 5196 5198 5201 5205 5212 5218 5223 5229